FW0639 Weather Reports


time (UTC)temp
C
wind
direction
speed
KPH
gust
KPH
rain 1hr
cm
rain 24hr
cm
rain mn
cm
humidity
%
barometer
mb
20260502212425 18 337 1.6 9.7 0.00 0.00 0.00 39 1015.2
20260502211359 18 338 3.2 9.7 0.00 0.00 0.00 38 1015.2
20260502210349 18 337 1.6 11.3 0.00 0.00 0.00 38 1015.1
20260502205321 18 337 3.2 11.3 0.00 0.00 0.00 38 1015.2
20260502203229 18 3 1.6 14.5 0.00 0.00 0.00 35 1015.3
20260502202210 19 337 1.6 9.7 0.00 0.00 0.00 34 1015.3
20260502201235 19 344 4.8 14.5 0.00 0.00 0.00 36 1015.4
20260502200212 18 337 0.0 9.7 0.00 0.00 0.00 36 1015.5
20260502195145 18 33 3.2 9.7 0.00 0.00 0.00 36 1015.6
20260502194141 18 337 1.6 6.4 0.00 0.00 0.00 35 1015.7
20260502193116 18 337 3.2 8.0 0.00 0.00 0.00 38 1015.7
20260502192042 17 183 1.6 8.0 0.00 0.00 0.00 36 1015.7
20260502191049 17 184 1.6 4.8 0.00 0.00 0.00 37 1015.9
20260502190050 17 184 1.6 4.8 0.00 0.00 0.00 37 1016.0
20260502185019 16 184 1.6 4.8 0.00 0.00 0.00 40 1016.1
20260502183954 16 184 1.6 6.4 0.00 0.00 0.00 38 1016.2
20260502182941 16 184 3.2 6.4 0.00 0.00 0.00 39 1016.3
20260502181948 17 184 1.6 6.4 0.00 0.00 0.00 38 1016.4
20260502180918 17 184 1.6 9.7 0.00 0.00 0.00 37 1016.5
20260502163706 15 16 0.0 4.8 0.00 0.00 0.00 38 1016.9
20260502162653 15 199 1.6 9.7 0.00 0.00 0.00 39 1016.9
20260502161700 14 80 1.6 9.7 0.00 0.00 0.00 41 1016.9
20260502160714 13 30 0.0 1.6 0.00 0.00 0.00 42 1017.0
20260502151706 12 338 0.0 4.8 0.00 0.00 0.00 44 1017.0
20260502150726 12 338 0.0 4.8 0.00 0.00 0.00 46 1017.0
20260502130314 1 201 0.0 0.0 0.00 0.00 0.00 80 1016.3
20260502123158 1 201 0.0 0.0 0.00 0.00 0.00 81 1016.1
20260502122138 1 201 0.0 1.6 0.00 0.00 0.00 81 1016.0
20260502121105 1 201 0.0 0.0 0.00 0.00 0.00 81 1016.0
20260502113802 1 201 0.0 0.0 0.00 0.00 0.00 80 1015.7
20260502112745 1 201 0.0 0.0 0.00 0.00 0.00 80 1015.6
20260502110548 1 201 0.0 0.0 0.00 0.00 0.00 80 1015.6
20260502105537 1 201 0.0 0.0 0.00 0.00 0.00 80 1015.6
20260502104533 1 201 0.0 0.0 0.00 0.00 0.00 80 1015.6
20260502103508 1 201 0.0 0.0 0.00 0.00 0.00 80 1015.5
20260502102440 2 201 0.0 0.0 0.00 0.00 0.00 80 1015.5
20260502101409 2 202 0.0 0.0 0.00 0.00 0.00 80 1015.5
20260502100340 2 202 0.0 0.0 0.00 0.00 0.00 80 1015.5
20260502091239 2 202 0.0 0.0 0.00 0.00 0.00 78 1015.3
20260502090227 2 202 0.0 0.0 0.00 0.00 0.00 78 1015.2
20260502065832 4 202 0.0 0.0 0.00 0.00 0.00 73 1014.8
20260502064850 4 202 0.0 0.0 0.00 0.00 0.00 72 1014.8
20260502063821 4 202 0.0 0.0 0.00 0.00 0.00 72 1014.8
20260502062834 5 202 0.0 0.0 0.00 0.00 0.00 72 1014.8
20260502061845 5 202 0.0 0.0 0.00 0.00 0.00 71 1014.9
20260502060853 5 40 0.0 0.0 0.00 0.00 0.00 71 1015.0
20260502055852 5 39 0.0 0.0 0.00 0.00 0.00 70 1015.0
20260502054818 6 42 0.0 3.2 0.00 0.00 0.00 69 1015.0
20260502051535 6 30 0.0 0.0 0.00 0.00 0.00 68 1015.4
20260502044251 7 22 0.0 4.8 0.00 0.00 0.00 63 1015.5
20260502042137 8 14 0.0 0.0 0.00 0.00 0.00 63 1015.5
20260502041143 8 10 0.0 3.2 0.00 0.00 0.00 62 1015.6
20260502040154 8 9 0.0 6.4 0.00 0.00 0.00 61 1015.6
20260502035148 9 7 0.0 0.0 0.00 0.00 0.00 60 1015.6
20260502034152 10 2 0.0 0.0 0.00 0.00 0.00 60 1015.5
20260502033144 10 354 0.0 0.0 0.00 0.00 0.00 57 1015.4
20260502032206 11 350 0.0 0.0 0.00 0.00 0.00 53 1015.3
20260502031227 12 351 0.0 0.0 0.00 0.00 0.00 53 1015.1
20260502030227 12 347 0.0 0.0 0.00 0.00 0.00 48 1014.9
20260502025208 13 346 0.0 0.0 0.00 0.00 0.00 46 1014.8
20260502024138 15 346 0.0 0.0 0.00 0.00 0.00 42 1014.6
20260502023153 16 343 0.0 0.0 0.00 0.00 0.00 39 1014.5
20260502022218 17 342 0.0 1.6 0.00 0.00 0.00 36 1014.4
20260502021144 18 345 0.0 0.0 0.00 0.00 0.00 36 1014.4
20260502020200 18 200 0.0 0.0 0.00 0.00 0.00 28 1014.4
20260502015152 19 201 0.0 0.0 0.00 0.00 0.00 27 1014.4
20260502014129 20 201 0.0 0.0 0.00 0.00 0.00 27 1014.5
20260502011937 21 202 0.0 6.4 0.00 0.00 0.00 24 1014.4
20260502010912 21 202 1.6 8.0 0.00 0.00 0.00 23 1014.5
20260502005915 22 202 1.6 8.0 0.00 0.00 0.00 22 1014.6
20260502004848 22 202 1.6 8.0 0.00 0.00 0.00 22 1014.7
20260502003909 22 202 1.6 8.0 0.00 0.00 0.00 21 1014.8
20260502002846 22 202 1.6 11.3 0.00 0.00 0.00 24 1014.9
20260502001840 22 202 1.6 8.0 0.00 0.00 0.00 22 1014.8
20260502000901 22 201 0.0 3.2 0.00 0.00 0.00 21 1014.8
20260501233620 22 202 1.6 8.0 0.00 0.00 0.00 21 1015.2
20260501232549 22 201 3.2 6.4 0.00 0.00 0.00 21 1015.2
20260501231611 22 201 1.6 8.0 0.00 0.00 0.00 22 1015.3
20260501230537 21 201 1.6 8.0 0.00 0.00 0.00 21 1015.4
20260501225539 21 201 3.2 11.3 0.00 0.00 0.00 21 1015.5
20260501223318 22 195 0.0 6.4 0.00 0.00 0.00 20 1015.7
20260501222324 22 194 1.6 9.7 0.00 0.00 0.00 19 1015.8
20260501221348 22 194 4.8 9.7 0.00 0.00 0.00 19 1015.9
20260501214127 21 194 1.6 14.5 0.00 0.00 0.00 22 1016.2